Time,TemperatureF,DewpointF,PressureIn,WindDirection,WindDirectionDegrees,WindSpeedMPH,WindSpeedGustMPH,Humidity,HourlyPrecipIn,Conditions,Clouds,dailyrainin,SoftwareType,DateUTC
2013-02-25 00:14:00,46.4,30.7,29.91,ENE,69,1.1,4.6,54,0.00,,,0.00,VWS V14.01,2013-02-25 06:14:00,
2013-02-25 00:29:00,46.3,30.6,29.89,NE,46,4.6,8.1,54,0.00,,,0.00,VWS V14.01,2013-02-25 06:29:00,
2013-02-25 00:44:00,46.5,30.8,29.90,NE,36,3.4,11.5,54,0.00,,,0.00,VWS V14.01,2013-02-25 06:44:00,
2013-02-25 00:59:00,46.3,30.6,29.90,NNE,30,3.4,12.6,54,0.00,,,0.00,VWS V14.01,2013-02-25 06:59:00,
2013-02-25 01:14:00,46.0,30.8,29.89,East,92,5.8,11.5,55,0.00,,,0.00,VWS V14.01,2013-02-25 07:14:00,
2013-02-25 01:28:00,45.8,30.6,29.90,East,98,2.3,10.3,55,0.00,,,0.00,VWS V14.01,2013-02-25 07:28:00,
2013-02-25 01:44:00,45.6,30.4,29.89,NE,46,4.6,11.5,55,0.00,,,0.00,VWS V14.01,2013-02-25 07:44:00,
2013-02-25 01:59:00,45.6,29.9,29.88,East,84,8.1,13.8,54,0.00,,,0.00,VWS V14.01,2013-02-25 07:59:00,
2013-02-25 02:14:00,45.6,29.9,29.88,ESE,108,4.6,10.3,54,0.00,,,0.00,VWS V14.01,2013-02-25 08:14:00,
2013-02-25 02:29:00,45.5,29.8,29.87,ENE,71,3.4,6.9,54,0.00,,,0.00,VWS V14.01,2013-02-25 08:29:00,
2013-02-25 02:44:00,45.1,29.9,29.87,East,91,4.6,8.1,55,0.00,,,0.00,VWS V14.01,2013-02-25 08:44:00,
2013-02-25 02:59:00,45.1,29.9,29.87,ENE,64,4.6,11.5,55,0.00,,,0.00,VWS V14.01,2013-02-25 08:59:00,
2013-02-25 03:14:00,44.9,29.7,29.87,ENE,66,2.3,9.2,55,0.00,,,0.00,VWS V14.01,2013-02-25 09:14:00,
2013-02-25 03:29:00,44.5,29.4,29.87,NE,50,5.8,6.9,55,0.00,,,0.00,VWS V14.01,2013-02-25 09:29:00,
2013-02-25 03:44:00,44.3,29.2,29.85,ENE,62,2.3,9.2,55,0.00,,,0.00,VWS V14.01,2013-02-25 09:44:00,
2013-02-25 03:59:00,44.0,28.9,29.85,ENE,75,4.6,11.5,55,0.00,,,0.00,VWS V14.01,2013-02-25 09:59:00,
2013-02-25 04:14:00,43.5,28.9,29.85,NE,44,5.8,9.2,56,0.00,,,0.00,VWS V14.01,2013-02-25 10:14:00,
2013-02-25 04:29:00,43.2,28.6,29.85,NE,44,6.9,10.3,56,0.00,,,0.00,VWS V14.01,2013-02-25 10:29:00,
2013-02-25 04:44:00,42.9,28.3,29.85,ENE,63,9.2,10.3,56,0.00,,,0.00,VWS V14.01,2013-02-25 10:44:00,
2013-02-25 04:59:00,42.8,28.2,29.85,NE,51,5.8,12.6,56,0.00,,,0.00,VWS V14.01,2013-02-25 10:59:00,
2013-02-25 05:14:00,42.7,28.1,29.85,ENE,61,2.3,12.6,56,0.00,,,0.00,VWS V14.01,2013-02-25 11:14:00,
2013-02-25 05:29:00,42.7,28.1,29.85,NE,44,2.3,12.6,56,0.00,,,0.00,VWS V14.01,2013-02-25 11:29:00,
2013-02-25 05:44:00,42.3,28.2,29.85,ENE,62,3.4,9.2,57,0.00,,,0.00,VWS V14.01,2013-02-25 11:44:00,
2013-02-25 05:59:00,42.4,28.3,29.84,ENE,68,5.8,11.5,57,0.00,,,0.00,VWS V14.01,2013-02-25 11:59:00,
2013-02-25 06:14:00,42.3,28.2,29.85,ENE,78,8.1,8.1,57,0.00,,,0.00,VWS V14.01,2013-02-25 12:14:00,
2013-02-25 06:28:00,41.9,28.2,29.85,ENE,68,4.6,9.2,58,0.00,,,0.00,VWS V14.01,2013-02-25 12:28:00,
2013-02-25 06:44:00,41.9,28.2,29.84,ENE,58,3.4,8.1,58,0.00,,,0.00,VWS V14.01,2013-02-25 12:44:00,
2013-02-25 06:59:00,42.2,28.5,29.83,ENE,78,5.8,11.5,58,0.00,,,0.00,VWS V14.01,2013-02-25 12:59:00,
2013-02-25 07:14:00,42.5,28.8,29.82,ENE,65,4.6,16.1,58,0.00,,,0.00,VWS V14.01,2013-02-25 13:14:00,
2013-02-25 07:29:00,42.9,28.7,29.82,NE,43,4.6,12.6,57,0.00,,,0.00,VWS V14.01,2013-02-25 13:29:00,
2013-02-25 07:44:00,44.3,29.6,29.82,ESE,102,11.5,12.6,56,0.00,,,0.00,VWS V14.01,2013-02-25 13:44:00,
2013-02-25 07:59:00,46.1,29.5,29.83,East,91,4.6,14.9,52,0.00,,,0.00,VWS V14.01,2013-02-25 13:59:00,
2013-02-25 08:29:00,47.5,30.8,29.84,East,88,4.6,12.6,52,0.00,,,0.00,VWS V14.01,2013-02-25 14:29:00,
2013-02-25 08:44:00,48.9,31.1,29.83,SSE,160,8.1,11.5,50,0.00,,,0.00,VWS V14.01,2013-02-25 14:44:00,
2013-02-25 08:59:00,49.5,30.6,29.83,NE,50,5.8,13.8,48,0.00,,,0.00,VWS V14.01,2013-02-25 14:59:00,
2013-02-25 09:14:00,50.4,32.0,29.82,NE,49,5.8,10.3,49,0.00,,,0.00,VWS V14.01,2013-02-25 15:14:00,
2013-02-25 09:29:00,52.2,32.6,29.81,East,89,8.1,16.1,47,0.00,,,0.00,VWS V14.01,2013-02-25 15:29:00,
2013-02-25 09:43:00,53.0,33.3,29.81,ESE,115,3.4,14.9,47,0.00,,,0.00,VWS V14.01,2013-02-25 15:43:00,
2013-02-25 09:59:00,54.0,34.2,29.80,NE,41,2.3,12.6,47,0.00,,,0.00,VWS V14.01,2013-02-25 15:59:00,
2013-02-25 10:14:00,54.9,36.1,29.81,SE,142,4.6,13.8,49,0.00,,,0.00,VWS V14.01,2013-02-25 16:14:00,
2013-02-25 10:29:00,55.7,36.8,29.80,ENE,70,4.6,13.8,49,0.00,,,0.00,VWS V14.01,2013-02-25 16:29:00,
2013-02-25 10:44:00,56.8,37.9,29.79,ENE,71,5.8,20.7,49,0.00,,,0.00,VWS V14.01,2013-02-25 16:44:00,
2013-02-25 10:59:00,56.5,38.6,29.78,ESE,105,4.6,17.2,51,0.00,,,0.00,VWS V14.01,2013-02-25 16:59:00,
2013-02-25 11:14:00,55.7,39.3,29.77,East,98,6.9,14.9,54,0.00,,,0.00,VWS V14.01,2013-02-25 17:14:00,
2013-02-25 11:28:00,55.8,39.9,29.77,ESE,119,11.5,18.4,55,0.00,,,0.00,VWS V14.01,2013-02-25 17:28:00,
2013-02-25 11:43:00,56.3,40.8,29.76,East,100,5.8,17.2,56,0.00,,,0.00,VWS V14.01,2013-02-25 17:43:00,
2013-02-25 11:59:00,56.7,42.1,29.75,East,83,6.9,14.9,58,0.00,,,0.00,VWS V14.01,2013-02-25 17:59:00,
2013-02-25 12:14:00,56.8,43.1,29.74,East,94,3.4,14.9,60,0.00,,,0.00,VWS V14.01,2013-02-25 18:14:00,
2013-02-25 12:29:00,56.6,42.9,29.72,ESE,107,3.4,17.2,60,0.00,,,0.00,VWS V14.01,2013-02-25 18:29:00,
2013-02-25 12:44:00,56.4,43.1,29.70,ESE,119,17.2,17.2,61,0.00,,,0.00,VWS V14.01,2013-02-25 18:44:00,
2013-02-25 12:59:00,56.5,43.7,29.69,ESE,123,4.6,17.2,62,0.00,,,0.00,VWS V14.01,2013-02-25 18:59:00,
2013-02-25 13:14:00,56.4,44.8,29.68,East,91,8.1,18.4,65,0.00,,,0.00,VWS V14.01,2013-02-25 19:14:00,
2013-02-25 13:29:00,56.8,45.6,29.67,ESE,112,10.3,16.1,66,0.00,,,0.00,VWS V14.01,2013-02-25 19:29:00,
2013-02-25 13:44:00,57.0,46.9,29.66,ESE,102,3.4,14.9,69,0.00,,,0.00,VWS V14.01,2013-02-25 19:44:00,
2013-02-25 13:59:00,56.9,46.5,29.65,NE,44,2.3,14.9,68,0.00,,,0.00,VWS V14.01,2013-02-25 19:59:00,
2013-02-25 14:14:00,56.9,47.2,29.63,South,177,8.1,16.1,70,0.00,,,0.00,VWS V14.01,2013-02-25 20:14:00,
2013-02-25 14:29:00,57.5,47.8,29.61,ENE,78,3.4,21.9,70,0.00,,,0.00,VWS V14.01,2013-02-25 20:29:00,
2013-02-25 14:44:00,57.8,47.7,29.59,ENE,57,6.9,18.4,69,0.00,,,0.00,VWS V14.01,2013-02-25 20:44:00,
2013-02-25 14:59:00,57.5,47.8,29.58,NE,44,8.1,21.9,70,0.00,,,0.00,VWS V14.01,2013-02-25 20:59:00,
2013-02-25 15:14:00,57.6,47.1,29.57,East,81,9.2,17.2,68,0.00,,,0.00,VWS V14.01,2013-02-25 21:14:00,
2013-02-25 15:29:00,57.7,47.2,29.56,ENE,57,4.6,21.9,68,0.00,,,0.00,VWS V14.01,2013-02-25 21:29:00,
2013-02-25 15:44:00,58.1,46.4,29.55,ESE,104,4.6,17.2,65,0.00,,,0.00,VWS V14.01,2013-02-25 21:44:00,
2013-02-25 15:59:00,57.8,46.1,29.55,ESE,111,10.3,18.4,65,0.00,,,0.00,VWS V14.01,2013-02-25 21:59:00,
2013-02-25 16:14:00,57.8,46.5,29.55,East,100,10.3,18.4,66,0.00,,,0.00,VWS V14.01,2013-02-25 22:14:00,
2013-02-25 16:29:00,57.6,46.7,29.55,SSE,156,9.2,23.0,67,0.00,,,0.00,VWS V14.01,2013-02-25 22:29:00,
2013-02-25 16:44:00,57.3,47.2,29.52,East,94,9.2,14.9,69,0.00,,,0.00,VWS V14.01,2013-02-25 22:44:00,
2013-02-25 16:59:00,56.8,46.8,29.52,NE,53,8.1,14.9,69,0.00,,,0.00,VWS V14.01,2013-02-25 22:59:00,
2013-02-25 17:13:00,56.7,47.0,29.52,East,89,2.3,13.8,70,0.00,,,0.00,VWS V14.01,2013-02-25 23:13:00,
2013-02-25 17:29:00,57.0,48.4,29.50,ESE,117,6.9,23.0,73,0.00,,,0.00,VWS V14.01,2013-02-25 23:29:00,
2013-02-25 17:44:00,56.7,49.2,29.50,ESE,112,8.1,19.5,76,0.00,,,0.00,VWS V14.01,2013-02-25 23:44:00,
2013-02-25 17:59:00,56.8,49.3,29.49,East,92,9.2,19.5,76,0.00,,,0.00,VWS V14.01,2013-02-25 23:59:00,
2013-02-25 18:14:00,57.1,49.6,29.49,ESE,117,6.9,23.0,76,0.00,,,0.00,VWS V14.01,2013-02-26 00:14:00,
2013-02-25 18:29:00,57.0,50.6,29.46,ESE,105,13.8,23.0,79,0.01,,,0.01,VWS V14.01,2013-02-26 00:29:00,
2013-02-25 18:44:00,56.4,51.0,29.47,ESE,103,6.9,24.1,82,0.01,,,0.01,VWS V14.01,2013-02-26 00:44:00,
2013-02-25 18:59:00,56.5,51.1,29.46,SE,130,4.6,24.1,82,0.02,,,0.02,VWS V14.01,2013-02-26 00:59:00,
2013-02-25 19:13:00,55.7,51.6,29.46,NE,44,2.3,17.2,86,0.07,,,0.07,VWS V14.01,2013-02-26 01:13:00,
2013-02-25 19:29:00,55.5,51.4,29.44,ENE,75,8.1,13.8,86,0.08,,,0.08,VWS V14.01,2013-02-26 01:29:00,
2013-02-25 19:44:00,55.5,51.4,29.41,ENE,70,6.9,11.5,86,0.07,,,0.08,VWS V14.01,2013-02-26 01:44:00,
2013-02-25 19:59:00,55.8,51.7,29.41,NE,50,5.8,17.2,86,0.09,,,0.10,VWS V14.01,2013-02-26 01:59:00,
2013-02-25 20:14:00,56.1,52.3,29.41,East,86,8.1,16.1,87,0.10,,,0.12,VWS V14.01,2013-02-26 02:14:00,
2013-02-25 20:28:00,55.9,52.7,29.40,ENE,70,5.8,13.8,89,0.09,,,0.16,VWS V14.01,2013-02-26 02:28:00,
2013-02-25 20:44:00,55.8,52.9,29.39,ESE,108,10.3,17.2,90,0.13,,,0.21,VWS V14.01,2013-02-26 02:44:00,
2013-02-25 20:59:00,55.5,53.2,29.38,SE,140,14.9,17.2,92,0.23,,,0.31,VWS V14.01,2013-02-26 02:59:00,
2013-02-25 21:14:00,55.1,53.1,29.34,SE,140,14.9,20.7,93,0.29,,,0.39,VWS V14.01,2013-02-26 03:14:00,
2013-02-25 21:29:00,55.4,53.1,29.34,SE,139,4.6,23.0,92,0.32,,,0.44,VWS V14.01,2013-02-26 03:29:00,
2013-02-25 21:43:00,55.2,52.9,29.32,ESE,112,10.3,25.3,92,0.35,,,0.51,VWS V14.01,2013-02-26 03:43:00,
2013-02-25 21:59:00,55.1,52.8,29.32,SE,132,10.3,19.5,92,0.33,,,0.54,VWS V14.01,2013-02-26 03:59:00,
2013-02-25 22:14:00,54.9,52.9,29.37,East,91,5.8,11.5,93,0.32,,,0.63,VWS V14.01,2013-02-26 04:14:00,
2013-02-25 22:28:00,55.0,53.3,29.36,ESE,108,3.4,16.1,94,0.27,,,0.66,VWS V14.01,2013-02-26 04:28:00,
2013-02-25 22:44:00,55.9,54.2,29.35,SSE,159,3.4,14.9,94,0.27,,,0.71,VWS V14.01,2013-02-26 04:44:00,
2013-02-25 22:59:00,56.1,54.1,29.35,ESE,115,6.9,10.3,93,0.20,,,0.71,VWS V14.01,2013-02-26 04:59:00,
2013-02-25 23:14:00,55.8,53.5,29.34,East,85,2.3,11.5,92,0.18,,,0.72,VWS V14.01,2013-02-26 05:14:00,
2013-02-25 23:29:00,55.2,52.9,29.36,South,186,3.4,11.5,92,0.09,,,0.72,VWS V14.01,2013-02-26 05:29:00,
2013-02-25 23:44:00,54.3,52.0,29.34,SE,138,0.0,12.6,92,0.08,,,0.74,VWS V14.01,2013-02-26 05:44:00,
2013-02-25 23:59:00,53.5,51.2,29.34,ESE,117,1.1,9.2,92,0.03,,,0.74,VWS V14.01,2013-02-26 05:59:00,